Location: Bonnesvalyn
(49.1218°N, 3.3177°E)
Time: 23:48:38
(UTC+00:00)

NOSS 0 Rocket - Pass Details

Date: 09 February 2023
Orbit: 935 x 954 km, 70.0° (Epoch: 01 April)

Event Time Altitude Azimuth Distance (km) Brightness Sun altitude
Rises 19:00:47 0° 200° (SSW) 3,610 7.2 -20.7°
Reaches altitude 10° 19:03:18 10° 199° (SSW) 2,671 6.5 -21.1°
Maximum altitude 19:09:29 73° 116° (ESE) 1,000 3.8 -22.1°
Enters shadow 19:13:22 24° 37° (NE) 1,860 5.2 -22.8°
